Location: *
(46.0770°N, 1.6444°E)
Time: 19:48:58
(UTC+00:00)

Cosmos 1190 Rocket - Pass Details

Date: 16 September 2019
Orbit: 757 x 780 km, 74.1° (Epoch: 21 October)

Event Time Altitude Azimuth Distance (km) Brightness Sun altitude
Rises 20:33:04 0° 335° (NNW) 3,271 8.2 -25.2°
Reaches altitude 10° 20:35:30 10° 331° (NNW) 2,337 7.3 -25.5°
Maximum altitude 20:40:41 58° 254° (WSW) 902 4.4 -26.2°
Enters shadow 20:41:42 49° 211° (SSW) 995 4.4 -26.4°
